FW1302 Weather Reports


time (UTC)temp
C
wind
direction
speed
KPH
gust
KPH
rain 1hr
cm
rain 24hr
cm
rain mn
cm
humidity
%
barometer
mb
20260904152719 12 67 3.2 4.8 0.00 0.00 0.00 92 1024.4
20260904151818 12 45 0.0 0.0 0.00 0.00 0.00 92 1024.4
20260904150819 11 45 0.0 0.0 0.00 0.00 0.00 92 1024.2
20260904145819 11 45 1.6 4.8 0.00 0.00 0.00 93 1024.1
20260904143918 11 90 1.6 3.2 0.00 0.00 0.00 94 1024.1
20260904142922 11 90 4.8 4.8 0.00 0.00 0.00 93 1024.0
20260904142019 11 67 0.0 1.6 0.00 0.00 0.00 94 1023.8
20260904141021 11 45 3.2 4.8 0.00 0.00 0.00 94 1023.7
20260904140120 11 67 1.6 4.8 0.00 0.00 0.00 94 1023.6
20260904135122 11 67 0.0 0.0 0.00 0.00 0.00 94 1023.5
20260904135020 11 67 0.0 0.0 0.00 0.00 0.00 93 1023.5
20260904134021 11 67 1.6 3.2 0.00 0.00 0.00 93 1023.4
20260904133118 11 67 1.6 4.8 0.00 0.00 0.00 93 1023.3
20260904131219 11 67 1.6 1.6 0.00 0.00 0.00 94 1023.1
20260904130245 11 67 1.6 4.8 0.00 0.00 0.00 94 1022.9
20260904130042 11 67 3.2 4.8 0.00 0.00 0.00 94 1022.9
20260904125633 11 67 1.6 3.2 0.00 0.00 0.00 94 1023.0
20260904123721 11 360 0.0 1.6 0.00 0.00 0.00 93 1022.9
20260904122819 11 360 0.0 0.0 0.00 0.00 0.00 95 1022.9
20260904120820 11 360 0.0 0.0 0.00 0.00 0.00 95 1022.9
20260904115819 11 360 0.0 0.0 0.00 0.00 0.00 94 1022.8
20260904115720 11 360 0.0 0.0 0.00 0.00 0.00 93 1022.8
20260904114719 11 360 0.0 0.0 0.00 0.00 0.00 94 1022.8
20260904112918 12 360 0.0 0.0 0.00 0.00 0.00 92 1022.4
20260904112820 12 360 0.0 0.0 0.00 0.00 0.00 92 1022.5
20260904111821 11 338 4.8 9.7 0.00 0.00 0.00 94 1022.6
20260904110819 11 360 3.2 8.0 0.00 0.00 0.00 93 1022.4
20260904105918 11 360 1.6 6.4 0.00 0.00 0.00 94 1022.4
20260904104920 11 10 6.4 9.7 0.00 0.00 0.00 95 1022.2
20260904103920 11 22 0.0 1.6 0.00 0.00 0.00 95 1022.2
20260904101919 11 45 1.6 3.2 0.00 0.00 0.00 94 1022.1
20260904095919 11 45 0.0 3.2 0.00 0.00 0.00 94 1022.0
20260904093921 11 45 0.0 0.0 0.00 0.00 0.00 94 1022.0
20260904093019 11 45 0.0 0.0 0.00 0.00 0.00 94 1021.8
20260904092022 11 45 0.0 0.0 0.00 0.00 0.00 95 1021.8
20260904091921 11 45 0.0 0.0 0.00 0.00 0.00 95 1021.7
20260904091019 11 45 0.0 0.0 0.00 0.00 0.00 93 1021.7
20260904085118 11 45 0.0 0.0 0.00 0.00 0.00 94 1021.7
20260904083120 11 45 4.8 6.4 0.00 0.00 0.00 94 1021.7
20260904082119 11 67 0.0 0.0 0.00 0.00 0.00 94 1021.7
20260904081121 11 337 0.0 0.0 0.00 0.00 0.00 92 1021.7
20260904080219 11 337 0.0 0.0 0.00 0.00 0.00 93 1021.8
20260904075219 12 337 0.0 0.0 0.00 0.00 0.00 93 1021.7
20260904074218 12 337 0.0 0.0 0.00 0.00 0.00 91 1021.7
20260904073221 12 337 0.0 0.0 0.00 0.00 0.00 91 1021.8
20260904072221 12 337 0.0 1.6 0.00 0.00 0.00 92 1021.7
20260904071319 12 360 0.0 0.0 0.00 0.00 0.00 92 1021.8
20260904070320 12 8 0.0 4.8 0.00 0.00 0.00 92 1021.8
20260904065330 12 360 0.0 0.0 0.00 0.00 0.00 90 1021.7
20260904065230 12 360 0.0 0.0 0.00 0.00 0.00 90 1021.7
20260904064232 12 337 0.0 0.0 0.00 0.00 0.00 92 1021.8
20260904063330 12 337 0.0 0.0 0.00 0.00 0.00 91 1021.7
20260904062331 12 337 4.8 6.4 0.00 0.00 0.00 89 1021.7
20260904062230 12 337 6.4 12.9 0.00 0.00 0.00 89 1021.7
20260904060329 13 315 8.0 12.9 0.00 0.00 0.00 87 1021.6
20260904055329 12 325 6.4 9.7 0.00 0.00 0.00 88 1021.7
20260904055227 12 337 4.8 11.3 0.00 0.00 0.00 88 1021.8
20260904054228 12 344 3.2 11.3 0.00 0.00 0.00 88 1021.7
20260904053328 12 343 3.2 14.5 0.00 0.00 0.00 88 1021.5
20260904052329 12 330 8.0 12.9 0.00 0.00 0.00 89 1021.5
20260904051428 12 339 0.0 11.3 0.00 0.00 0.00 89 1021.6
20260904045429 12 22 6.4 6.4 0.00 0.00 0.00 90 1021.7
20260904044429 12 360 8.0 11.3 0.00 0.00 0.00 91 1021.5
20260904043429 13 360 6.4 9.7 0.00 0.00 0.00 90 1021.5
20260904042429 13 360 1.6 6.4 0.00 0.00 0.00 92 1021.6
20260904040430 13 6 8.0 12.9 0.00 0.00 0.00 92 1021.5
20260904035430 13 360 12.9 14.5 0.00 0.00 0.00 93 1021.5
20260904034429 13 360 3.2 9.7 0.00 0.00 0.00 92 1021.5
20260904033528 13 337 4.8 11.3 0.00 0.00 0.00 92 1021.5
20260904032547 13 45 3.2 6.4 0.00 0.00 0.00 93 1021.4
20260904031629 13 135 0.0 0.0 0.00 0.00 0.00 93 1021.1
20260904030631 13 135 4.8 6.4 0.00 0.00 0.00 93 1021.2
20260904025629 13 157 1.6 3.2 0.00 0.00 0.00 93 1021.1
20260904024630 13 180 0.0 0.0 0.00 0.00 0.00 93 1021.0
20260904024531 13 180 0.0 0.0 0.00 0.00 0.00 93 1021.0
20260904022531 14 180 0.0 0.0 0.00 0.00 0.00 92 1021.0
20260904021529 14 180 0.0 0.0 0.00 0.00 0.00 91 1020.9
20260904020532 14 180 0.0 0.0 0.00 0.00 0.00 90 1020.9
20260904015629 14 201 0.0 0.0 0.00 0.00 0.00 91 1021.0
20260904013629 14 225 3.2 8.0 0.00 0.00 0.00 90 1020.9
20260904012629 14 225 4.8 6.4 0.00 0.00 0.00 89 1020.9
20260904011630 15 180 0.0 0.0 0.00 0.03 0.00 87 1020.8
20260904005729 15 223 3.2 4.8 0.00 0.03 0.00 84 1021.0
20260904004828 15 225 8.0 9.7 0.00 0.03 0.00 84 1021.0
20260904003829 16 220 4.8 8.0 0.00 0.03 0.00 82 1020.9
20260904002829 16 225 4.8 6.4 0.00 0.03 0.00 78 1020.7
20260904000928 16 360 3.2 4.8 0.00 0.03 0.00 76 1020.6
20260903235930 16 22 0.0 1.6 0.00 0.03 0.00 77 1020.6
20260903235832 16 22 1.6 3.2 0.00 0.03 0.00 76 1020.5
20260903234929 16 22 0.0 1.6 0.00 0.03 0.00 76 1020.6
20260903234028 17 22 6.4 6.4 0.00 0.03 0.00 77 1020.7
20260903233030 17 45 3.2 6.4 0.00 0.03 0.00 87 1020.8
20260903230029 15 157 1.6 3.2 0.00 0.03 0.00 85 1021.3
20260903225029 15 157 1.6 3.2 0.00 0.03 0.00 83 1021.4
20260903224128 15 164 3.2 6.4 0.00 0.03 0.00 80 1021.4
20260903221228 16 225 6.4 8.0 0.00 0.03 0.00 79 1021.5
20260903220230 16 221 1.6 4.8 0.00 0.03 0.00 80 1021.4
20260903215229 15 221 1.6 3.2 0.00 0.03 0.00 80 1021.5
20260903214228 15 225 1.6 4.8 0.00 0.03 0.00 81 1021.5
20260903213228 15 214 4.8 8.0 0.00 0.03 0.00 83 1021.4
20260903212229 15 222 8.0 14.5 0.00 0.03 0.00 85 1021.3
20260903211230 14 228 4.8 6.4 0.00 0.03 0.00 85 1021.4
20260903210329 14 157 1.6 4.8 0.00 0.03 0.00 84 1021.4
20260903204332 15 216 12.9 17.7 0.00 0.03 0.00 75 1021.3
20260903203429 16 227 17.7 24.1 0.00 0.03 0.00 78 1021.2
20260903200529 16 45 0.0 0.0 0.00 0.03 0.00 75 1020.9
20260903194529 16 45 9.7 11.3 0.00 0.03 0.00 75 1020.9
20260903193628 16 45 11.3 16.1 0.00 0.03 0.00 73 1021.0
20260903192629 16 45 8.0 11.3 0.00 0.03 0.00 71 1021.0
20260903191728 16 28 11.3 12.9 0.00 0.03 0.00 73 1021.1
20260903190734 16 45 8.0 11.3 0.00 0.03 0.00 75 1021.2
20260903185729 16 45 6.4 9.7 0.00 0.03 0.00 75 1021.3
20260903183828 15 45 4.8 6.4 0.00 0.03 0.00 78 1021.7
20260903182829 15 45 4.8 6.4 0.00 0.03 0.00 78 1021.7
20260903180829 15 45 8.0 11.3 0.00 0.03 0.00 81 1021.7
20260903175828 15 45 9.7 11.3 0.00 0.03 0.00 85 1021.7
20260903173828 14 45 9.7 11.3 0.00 0.03 0.00 89 1021.8
20260903172831 13 45 6.4 9.7 0.00 0.03 0.00 91 1021.8
20260903171927 13 45 4.8 6.4 0.00 0.03 0.00 93 1022.0
20260903170828 13 34 8.0 11.3 0.00 0.03 0.00 94 1022.0
20260903165828 13 360 3.2 8.0 0.00 0.03 0.00 93 1022.0
20260903164828 13 180 0.0 0.0 0.00 0.03 0.00 92 1022.0
20260903163829 12 180 0.0 0.0 0.00 0.03 0.00 92 1022.3
20260903162830 12 180 0.0 0.0 0.00 0.03 0.00 92 1022.3
20260903162728 12 180 0.0 0.0 0.00 0.03 0.00 93 1022.4
20260903161730 12 180 0.0 0.0 0.00 0.03 0.00 92 1022.4
20260903160728 12 180 1.6 8.0 0.00 0.03 0.00 93 1022.4
20260903155730 12 90 0.0 3.2 0.00 0.03 0.00 94 1022.1
20260903154829 12 45 3.2 4.8 0.00 0.03 0.00 93 1022.0
20260903153829 12 90 0.0 0.0 0.00 0.03 0.00 93 1021.9
20260903152830 12 90 4.8 9.7 0.00 0.03 0.00 94 1021.9